OPS 4682 DEB, 38438

Orbit data source: Space-Track

OPS 4682 DEB, 38438 is space debris in LEO originally from a launch on Sat, 03 Apr 1965 UTC launched from the Air Force Western Test Range (AFWTR). Debris objects in space refer to the collection of defunct objects orbiting the Earth. Examples of debris include non-operational satellites, rocket bodies, and fragments generated from explosions, collisions, or faulty payload assembly.

Loading next visibility...
Identifier
38438, 1965-027ET
Orbit
LEO
Country
Flag of USUS
Related business
Manufacturer
Unknown
Mission
Spacecraft
Bus & Motor
Unknown
Mass
Unknown
Launch date (UTC)
1965-04-03 (61 years ago)
Launch vehicle
Unknown
Launch site
Air Force Western Test Range (AFWTR)
Object type
Payload
Rocket body
Debris
Shape & HBR
Unknown shape, 0.1 m
Radar Cross Section
Medium (>0.1 m² and <1 m²)

Expand to show TLE details & history
Last TLE update: 12 hours ago

TLE from 12 hours ago
0 OPS 4682 DEB
1 38438U 65027ET  26255.74159962  .00000152  00000-0  52782-3 0  9994
2 38438  90.2469   7.5510 0029760  46.5993 313.7595 12.93148514672350
Epoch: 2026-09-12T17:47Z
TLE epoch observation values (Epoch: 2026-09-12T17:47:54.207Z)
Latitude
-0.00008°
Longitude
108.82889°
Altitude
1,276.174 km
Speed
7.225 km/s
True Right ascension
00h 30m 12s
True Declination
0° 00' 00"
Sunlit
Object was in full shadow at epoch
Visualization orbit readout
Latitude
Unknown
Longitude
Unknown
Altitude
Unknown
Speed
Unknown
Apparent Right ascension
Unknown
Apparent Declination
Unknown
Sunlit
N/A
Visualization observer readout
Local Sidereal Time
22:03:55
Azimuth
Unknown
Elevation
Unknown
Doppler factor
Unknown
Orbital elements
Apogee altitude
1,308.996 km
Perigee altitude
1,263.378 km
Semi-major axis
7,664.324 km
Eccentricity
0.00298
Inclination
90.2469°
RAAN
7.551°
Arg. of periapsis
46.5993°
True anomaly
313.51256°
Mean anomaly
313.7595°
Eccentric anomaly
313.63609°
Mean motion
3.23469 °/min
Orbital period
111.29 mins
BSTAR
0.00052782
Loading maneuver chart data...
Computing Atmospheric mass density...
Loading historical data...
Loading historical data...
Loading historical data...
Loading historical data...
Loading historical data...
Loading historical data...
Loading historical data...

Documentation

Showing up to 5 results
|